Weather in Yemel'yanovka

Russia / Republic of Karelia     63°55′28″N   30°54′02″E
temp.,
°C
wind,
m/s
gust,
m/s
humid.,
%
clouds,
%
prec.,
mm/h
press.,
hPa
HPBL,
m
9 march, tue
tue900:00−24ene229814 0.0 102120
03:00−25ene12976 0.0 102219
06:00−26ene22980 0.0 102319
09:00−25ene12960 0.0 102549
12:00−19ene12820 0.0 1026280
15:00−16ene22760 0.0 1027403
18:00−19ne11900 0.0 102820
21:00−23nw11900 0.0 102920
10 march, wed
wed1000:00−23wnw11856 0.0 103020
03:00−23w128331 0.0 103120
06:00−23w228374 0.0 103120
09:00−21w228438 0.0 103267
12:00−15wsw24770 0.0 1031249
15:00−12wsw36750 0.0 1030431
18:00−15sw35870 0.0 1029115
21:00−19sw38900 0.0 1029143
11 march, thu
thu1100:00−19sw410890 0.0 1028260
03:00−19sw412900 0.0 1026327
06:00−19ssw412870 0.0 1024335
09:00−18ssw513840 0.0 1022384
12:00−13ssw612740 0.0 1019491
15:00−9ssw613780 0.0 1016667
18:00−9ssw6139185 0.1 1014591
21:00−11ssw6159192 0.1 1012618
12 march, fri
fri1200:00−10ssw61692100 0.1 1010682
03:00−8ssw61591100 0.2 1008725
06:00−8ssw61591100 0.1 1006732
09:00−8ssw71589100 0.2 1004715
12:00−7ssw71487100 0.1 1003768
15:00−6s71488100 0.1 1002864
18:00−6ssw71489100 0.1 1000892
21:00−7ssw61590100 0.2 1000810
13 march, sat
sat1300:00−6s61390100 0.1 999762
03:00−5s61393100 0.4 998732
06:00−5s51293100 0.2 996683
09:00−5s51292100 0.4 995670
12:00−2s6139198 0.1 994671
15:000s7149699 0.7 9921028
18:000ssw71397100 2.2 9911014
21:000ssw71395100 3.0 990968